Location: Newark
(43.6486°N, 79.3853°W)
Time: 00:39:09
(UTC+00:00)

STARLINK-1313 - Pass Details

Date: 08 April 2020
Orbit: 378 x 381 km, 53.0° (Epoch: 04 June)

Event Time Altitude Azimuth Distance (km) Brightness Sun altitude
Exits shadow 07:45:33 12° 25° (NNE) 1,283 6.3 -29.2°
Drops below altitude 10° 07:46:01 10° 32° (NNE) 1,392 6.6 -29.1°
Enters shadow 08:44:38 -66° 268° (W) 12,065 10.4 -21.0°
Maximum altitude 09:20:39 18° 14° (NNE) 1,002 5.5 -15.4°
